Time,TemperatureF,DewpointF,PressureIn,WindDirection,WindDirectionDegrees,WindSpeedMPH,WindSpeedGustMPH,Humidity,HourlyPrecipIn,Conditions,Clouds,dailyrainin,SoftwareType,DateUTC
2013-03-08 00:02:00,29.0,25.0,30.15,WNW,291,9.0,17.0,86,0.00,,,0.04,,2013-03-08 05:02:00,
2013-03-08 00:12:00,29.0,25.0,30.15,WNW,291,9.0,17.0,86,0.00,,,0.04,,2013-03-08 05:12:00,
2013-03-08 00:22:00,28.0,25.0,30.16,NW,305,9.0,16.0,88,0.00,,,0.04,,2013-03-08 05:22:00,
2013-03-08 00:32:00,27.0,24.0,30.15,WNW,288,8.0,18.0,89,0.00,,,0.04,,2013-03-08 05:32:00,
2013-03-08 00:42:00,27.0,24.0,30.15,WNW,288,8.0,18.0,89,0.00,,,0.04,,2013-03-08 05:42:00,
2013-03-08 00:52:00,27.0,24.0,30.16,NW,308,7.0,13.0,87,0.00,,,0.04,,2013-03-08 05:52:00,
2013-03-08 01:01:00,27.0,24.0,30.16,WNW,300,6.0,16.0,87,0.00,,,0.04,,2013-03-08 06:01:00,
2013-03-08 01:11:00,27.0,24.0,30.16,WNW,300,6.0,16.0,87,0.00,,,0.04,,2013-03-08 06:11:00,
2013-03-08 01:22:00,27.0,24.0,30.16,WNW,290,8.0,20.0,87,0.00,,,0.04,,2013-03-08 06:22:00,
2013-03-08 01:32:00,27.0,24.0,30.16,WNW,297,3.0,12.0,87,0.00,,,0.04,,2013-03-08 06:32:00,
2013-03-08 01:42:00,27.0,24.0,30.16,WNW,297,3.0,12.0,87,0.00,,,0.04,,2013-03-08 06:42:00,
2013-03-08 01:52:00,27.0,24.0,30.16,NW,309,7.0,12.0,87,0.00,,,0.04,,2013-03-08 06:52:00,
2013-03-08 02:01:00,27.0,23.0,30.15,WNW,291,7.0,12.0,86,0.00,,,0.04,,2013-03-08 07:01:00,
2013-03-08 02:11:00,27.0,23.0,30.15,WNW,291,7.0,12.0,86,0.00,,,0.04,,2013-03-08 07:11:00,
2013-03-08 02:22:00,27.0,23.0,30.15,WNW,294,5.0,11.0,86,0.00,,,0.04,,2013-03-08 07:22:00,
2013-03-08 02:32:00,27.0,24.0,30.15,WNW,297,5.0,12.0,87,0.00,,,0.04,,2013-03-08 07:32:00,
2013-03-08 02:42:00,27.0,24.0,30.15,WNW,297,5.0,12.0,87,0.00,,,0.04,,2013-03-08 07:42:00,
2013-03-08 02:52:00,27.0,24.0,30.15,West,263,4.0,10.0,88,0.00,,,0.04,,2013-03-08 07:52:00,
2013-03-08 03:01:00,27.0,24.0,30.14,West,274,7.0,12.0,88,0.00,,,0.04,,2013-03-08 08:01:00,
2013-03-08 03:11:00,27.0,24.0,30.14,West,274,7.0,12.0,88,0.00,,,0.04,,2013-03-08 08:11:00,
2013-03-08 03:22:00,27.0,24.0,30.14,West,272,5.0,11.0,87,0.00,,,0.04,,2013-03-08 08:22:00,
2013-03-08 03:32:00,27.0,24.0,30.15,WNW,298,5.0,14.0,87,0.00,,,0.04,,2013-03-08 08:32:00,
2013-03-08 03:42:00,27.0,24.0,30.15,WNW,298,5.0,14.0,87,0.00,,,0.04,,2013-03-08 08:42:00,
2013-03-08 03:52:00,27.0,24.0,30.14,WNW,283,6.0,15.0,87,0.00,,,0.04,,2013-03-08 08:52:00,
2013-03-08 04:03:00,27.0,24.0,30.15,WNW,295,6.0,14.0,87,0.00,,,0.04,,2013-03-08 09:03:00,
2013-03-08 04:11:00,27.0,24.0,30.15,WNW,295,6.0,14.0,87,0.00,,,0.04,,2013-03-08 09:11:00,
2013-03-08 04:21:00,27.0,24.0,30.15,WNW,289,8.0,21.0,87,0.00,,,0.04,,2013-03-08 09:21:00,
2013-03-08 04:32:00,26.0,23.0,30.15,WNW,284,7.0,16.0,87,0.00,,,0.04,,2013-03-08 09:32:00,
2013-03-08 04:42:00,26.0,23.0,30.15,WNW,284,7.0,16.0,87,0.00,,,0.04,,2013-03-08 09:42:00,
2013-03-08 04:52:00,26.0,23.0,30.15,WNW,284,7.0,16.0,87,0.00,,,0.04,,2013-03-08 09:52:00,
2013-03-08 05:01:00,26.0,23.0,30.16,WNW,283,8.0,20.0,88,0.00,,,0.04,,2013-03-08 10:01:00,
2013-03-08 05:11:00,26.0,23.0,30.16,WNW,283,8.0,20.0,88,0.00,,,0.04,,2013-03-08 10:11:00,
2013-03-08 05:21:00,26.0,23.0,30.16,WNW,283,8.0,20.0,88,0.00,,,0.04,,2013-03-08 10:21:00,
2013-03-08 05:32:00,26.0,23.0,30.17,WNW,294,9.0,23.0,90,0.00,,,0.04,,2013-03-08 10:32:00,
2013-03-08 05:42:00,26.0,23.0,30.17,WNW,294,9.0,23.0,90,0.00,,,0.04,,2013-03-08 10:42:00,
2013-03-08 05:52:00,26.0,23.0,30.17,West,279,7.0,16.0,90,0.00,,,0.04,,2013-03-08 10:52:00,
2013-03-08 06:01:00,26.0,23.0,30.17,West,270,10.0,16.0,90,0.00,,,0.04,,2013-03-08 11:01:00,
2013-03-08 06:11:00,26.0,23.0,30.17,West,270,10.0,16.0,90,0.00,,,0.04,,2013-03-08 11:11:00,
2013-03-08 06:21:00,26.0,23.0,30.18,WNW,298,6.0,19.0,90,0.00,,,0.04,,2013-03-08 11:21:00,
2013-03-08 06:32:00,26.0,23.0,30.18,WNW,288,11.0,19.0,89,0.00,,,0.04,,2013-03-08 11:32:00,
2013-03-08 06:42:00,26.0,23.0,30.18,WNW,288,11.0,19.0,89,0.00,,,0.04,,2013-03-08 11:42:00,
2013-03-08 06:52:00,26.0,23.0,30.19,WNW,300,8.0,17.0,89,0.00,,,0.04,,2013-03-08 11:52:00,
2013-03-08 07:02:00,26.0,23.0,30.19,WNW,289,9.0,16.0,90,0.00,,,0.04,,2013-03-08 12:02:00,
2013-03-08 07:11:00,26.0,23.0,30.19,WNW,289,9.0,16.0,90,0.00,,,0.04,,2013-03-08 12:11:00,
2013-03-08 07:22:00,26.0,23.0,30.20,NW,305,11.0,18.0,90,0.00,,,0.04,,2013-03-08 12:22:00,
2013-03-08 07:32:00,26.0,23.0,30.20,WNW,284,8.0,19.0,90,0.00,,,0.04,,2013-03-08 12:32:00,
2013-03-08 07:43:00,26.0,23.0,30.20,WNW,284,8.0,19.0,90,0.00,,,0.04,,2013-03-08 12:43:00,
2013-03-08 07:53:00,26.0,23.0,30.21,West,272,11.0,21.0,90,0.00,,,0.04,,2013-03-08 12:53:00,
2013-03-08 08:01:00,26.0,23.0,30.22,NW,304,7.0,17.0,90,0.00,,,0.04,,2013-03-08 13:01:00,
2013-03-08 08:11:00,26.0,23.0,30.22,NW,304,7.0,17.0,90,0.00,,,0.04,,2013-03-08 13:11:00,
2013-03-08 08:22:00,26.0,23.0,30.22,WNW,286,7.0,14.0,90,0.00,,,0.04,,2013-03-08 13:22:00,
2013-03-08 08:32:00,26.0,23.0,30.21,WNW,303,11.0,23.0,89,0.00,,,0.04,,2013-03-08 13:32:00,
2013-03-08 08:42:00,26.0,23.0,30.21,WNW,303,11.0,23.0,89,0.00,,,0.04,,2013-03-08 13:42:00,
2013-03-08 08:52:00,26.0,23.0,30.21,NW,305,11.0,21.0,89,0.00,,,0.04,,2013-03-08 13:52:00,
2013-03-08 09:03:00,27.0,24.0,30.22,NW,310,6.0,21.0,88,0.00,,,0.04,,2013-03-08 14:03:00,
2013-03-08 09:11:00,27.0,24.0,30.22,NW,310,6.0,21.0,88,0.00,,,0.04,,2013-03-08 14:11:00,
2013-03-08 09:22:00,27.0,24.0,30.22,NW,321,9.0,18.0,88,0.00,,,0.04,,2013-03-08 14:22:00,
2013-03-08 09:32:00,27.0,24.0,30.22,NW,305,10.0,20.0,88,0.00,,,0.04,,2013-03-08 14:32:00,
2013-03-08 09:42:00,27.0,24.0,30.22,NW,305,10.0,20.0,88,0.00,,,0.04,,2013-03-08 14:42:00,
2013-03-08 09:53:00,27.0,23.0,30.23,NW,309,10.0,22.0,85,0.00,,,0.04,,2013-03-08 14:53:00,
2013-03-08 10:03:00,28.0,24.0,30.23,NW,305,11.0,18.0,84,0.00,,,0.04,,2013-03-08 15:03:00,
2013-03-08 10:12:00,28.0,24.0,30.23,WNW,299,8.0,19.0,84,0.00,,,0.04,,2013-03-08 15:12:00,
2013-03-08 10:22:00,28.0,24.0,30.23,WNW,299,8.0,19.0,84,0.00,,,0.04,,2013-03-08 15:22:00,
2013-03-08 10:32:00,27.0,23.0,30.24,WNW,291,10.0,21.0,85,0.00,,,0.03,,2013-03-08 15:32:00,
2013-03-08 10:42:00,27.0,23.0,30.24,WNW,291,10.0,21.0,85,0.00,,,0.03,,2013-03-08 15:42:00,
2013-03-08 10:53:00,27.0,23.0,30.24,WNW,287,10.0,21.0,85,0.00,,,0.03,,2013-03-08 15:53:00,
2013-03-08 11:01:00,28.0,24.0,30.24,WNW,300,10.0,21.0,84,0.00,,,0.03,,2013-03-08 16:01:00,
2013-03-08 11:11:00,28.0,24.0,30.24,WNW,300,10.0,21.0,84,0.00,,,0.03,,2013-03-08 16:11:00,
2013-03-08 11:22:00,28.0,24.0,30.24,NW,306,6.0,22.0,83,0.00,,,0.03,,2013-03-08 16:22:00,
2013-03-08 11:32:00,28.0,24.0,30.24,NW,316,5.0,19.0,83,0.00,,,0.03,,2013-03-08 16:32:00,
2013-03-08 11:42:00,28.0,24.0,30.24,NW,316,5.0,19.0,83,0.00,,,0.03,,2013-03-08 16:42:00,
2013-03-08 11:52:00,28.0,24.0,30.25,WNW,299,9.0,17.0,85,0.00,,,0.03,,2013-03-08 16:52:00,
2013-03-08 12:03:00,28.0,24.0,30.25,WNW,301,10.0,17.0,86,0.00,,,0.03,,2013-03-08 17:03:00,
2013-03-08 12:11:00,28.0,24.0,30.25,WNW,301,10.0,17.0,86,0.00,,,0.03,,2013-03-08 17:11:00,
2013-03-08 12:21:00,28.0,24.0,30.25,WNW,302,8.0,16.0,86,0.00,,,0.02,,2013-03-08 17:21:00,
2013-03-08 12:32:00,29.0,25.0,30.25,NW,307,9.0,19.0,85,0.00,,,0.02,,2013-03-08 17:32:00,
2013-03-08 12:42:00,29.0,25.0,30.25,NW,307,9.0,19.0,85,0.00,,,0.02,,2013-03-08 17:42:00,
2013-03-08 12:52:00,29.0,25.0,30.24,WNW,299,6.0,18.0,85,0.00,,,0.02,,2013-03-08 17:52:00,
2013-03-08 13:02:00,29.0,25.0,30.24,NW,319,12.0,19.0,85,0.00,,,0.02,,2013-03-08 18:02:00,
2013-03-08 13:11:00,29.0,25.0,30.24,NW,319,12.0,19.0,85,0.00,,,0.02,,2013-03-08 18:11:00,
2013-03-08 13:21:00,29.0,25.0,30.24,WNW,296,11.0,25.0,84,0.00,,,0.01,,2013-03-08 18:21:00,
2013-03-08 13:32:00,30.0,25.0,30.23,NW,310,7.0,20.0,83,0.00,,,0.01,,2013-03-08 18:32:00,
2013-03-08 13:42:00,30.0,25.0,30.23,NW,310,7.0,20.0,83,0.00,,,0.01,,2013-03-08 18:42:00,
2013-03-08 13:52:00,30.0,26.0,30.23,WNW,298,6.0,16.0,84,0.00,,,0.01,,2013-03-08 18:52:00,
2013-03-08 14:01:00,30.0,25.0,30.23,WNW,286,11.0,18.0,83,0.00,,,0.01,,2013-03-08 19:01:00,
2013-03-08 14:11:00,30.0,25.0,30.23,WNW,286,11.0,18.0,83,0.00,,,0.01,,2013-03-08 19:11:00,
2013-03-08 14:22:00,30.0,25.0,30.24,WNW,298,10.0,16.0,82,0.00,,,0.01,,2013-03-08 19:22:00,
2013-03-08 14:32:00,30.0,25.0,30.24,WNW,287,9.0,18.0,82,0.00,,,0.01,,2013-03-08 19:32:00,
2013-03-08 14:42:00,30.0,25.0,30.24,WNW,287,9.0,18.0,82,0.00,,,0.01,,2013-03-08 19:42:00,
2013-03-08 14:52:00,30.0,25.0,30.24,WNW,289,9.0,15.0,80,0.00,,,0.01,,2013-03-08 19:52:00,
2013-03-08 15:01:00,31.0,26.0,30.24,NW,322,8.0,15.0,80,0.00,,,0.01,,2013-03-08 20:01:00,
2013-03-08 15:11:00,31.0,26.0,30.24,NW,322,8.0,15.0,80,0.00,,,0.01,,2013-03-08 20:11:00,
2013-03-08 15:22:00,31.0,26.0,30.25,WNW,295,7.0,17.0,80,0.00,,,0.01,,2013-03-08 20:22:00,
2013-03-08 15:32:00,31.0,25.0,30.24,WNW,285,8.0,18.0,79,0.00,,,0.01,,2013-03-08 20:32:00,
2013-03-08 15:42:00,31.0,25.0,30.24,WNW,285,8.0,18.0,79,0.00,,,0.01,,2013-03-08 20:42:00,
2013-03-08 15:53:00,31.0,25.0,30.25,West,281,9.0,16.0,79,0.00,,,0.01,,2013-03-08 20:53:00,
2013-03-08 16:02:00,31.0,26.0,30.25,WNW,298,6.0,13.0,80,0.00,,,0.01,,2013-03-08 21:02:00,
2013-03-08 16:11:00,31.0,26.0,30.25,WNW,298,6.0,13.0,80,0.00,,,0.01,,2013-03-08 21:11:00,
2013-03-08 16:22:00,31.0,26.0,30.25,West,268,9.0,17.0,80,0.00,,,0.00,,2013-03-08 21:22:00,
2013-03-08 16:32:00,31.0,25.0,30.25,West,281,8.0,19.0,79,0.00,,,0.00,,2013-03-08 21:32:00,
2013-03-08 16:42:00,31.0,25.0,30.25,West,281,8.0,19.0,79,0.00,,,0.00,,2013-03-08 21:42:00,
2013-03-08 16:52:00,32.0,26.0,30.26,WSW,258,7.0,16.0,78,0.00,,,0.00,,2013-03-08 21:52:00,
2013-03-08 17:01:00,32.0,26.0,30.26,WSW,258,7.0,16.0,78,0.00,,,0.00,,2013-03-08 22:01:00,
2013-03-08 17:11:00,32.0,26.0,30.26,WSW,258,7.0,16.0,78,0.00,,,0.00,,2013-03-08 22:11:00,
2013-03-08 17:22:00,31.0,25.0,30.27,West,274,5.0,15.0,78,0.00,,,0.00,,2013-03-08 22:22:00,
2013-03-08 17:32:00,31.0,25.0,30.27,WNW,284,8.0,17.0,78,0.00,,,0.00,,2013-03-08 22:32:00,
2013-03-08 17:42:00,31.0,25.0,30.27,WNW,284,8.0,17.0,78,0.00,,,0.00,,2013-03-08 22:42:00,
2013-03-08 17:53:00,31.0,25.0,30.27,WNW,284,4.0,16.0,77,0.00,,,0.00,,2013-03-08 22:53:00,
2013-03-08 18:02:00,31.0,25.0,30.28,WNW,291,4.0,14.0,77,0.00,,,0.00,,2013-03-08 23:02:00,
2013-03-08 18:12:00,31.0,25.0,30.28,WNW,291,4.0,14.0,77,0.00,,,0.00,,2013-03-08 23:12:00,
2013-03-08 18:22:00,31.0,25.0,30.28,West,272,4.0,13.0,78,0.00,,,0.00,,2013-03-08 23:22:00,
2013-03-08 18:32:00,30.0,25.0,30.28,WSW,253,5.0,12.0,80,0.00,,,0.00,,2013-03-08 23:32:00,
2013-03-08 18:42:00,30.0,25.0,30.28,WSW,253,5.0,12.0,80,0.00,,,0.00,,2013-03-08 23:42:00,
2013-03-08 18:53:00,30.0,25.0,30.28,West,278,6.0,12.0,81,0.00,,,0.00,,2013-03-08 23:53:00,
2013-03-08 19:02:00,29.0,25.0,30.29,West,278,6.0,14.0,83,0.00,,,0.00,,2013-03-09 00:02:00,
2013-03-08 19:12:00,29.0,25.0,30.29,West,278,6.0,14.0,83,0.00,,,0.00,,2013-03-09 00:12:00,
2013-03-08 19:22:00,29.0,25.0,30.29,West,277,5.0,12.0,83,0.00,,,0.00,,2013-03-09 00:22:00,
2013-03-08 19:32:00,29.0,25.0,30.30,West,262,3.0,10.0,84,0.00,,,0.00,,2013-03-09 00:32:00,
2013-03-08 19:42:00,29.0,25.0,30.30,West,262,3.0,10.0,84,0.00,,,0.00,,2013-03-09 00:42:00,
2013-03-08 19:52:00,28.0,24.0,30.31,WSW,251,3.0,7.0,85,0.00,,,0.00,,2013-03-09 00:52:00,
2013-03-08 20:02:00,28.0,24.0,30.31,WSW,245,4.0,9.0,85,0.00,,,0.00,,2013-03-09 01:02:00,
2013-03-08 20:12:00,28.0,24.0,30.32,WSW,252,5.0,8.0,86,0.00,,,0.00,,2013-03-09 01:12:00,
2013-03-08 20:22:00,28.0,24.0,30.32,WSW,252,5.0,8.0,86,0.00,,,0.00,,2013-03-09 01:22:00,
2013-03-08 20:32:00,28.0,24.0,30.32,WSW,249,5.0,8.0,86,0.00,,,0.00,,2013-03-09 01:32:00,
2013-03-08 20:42:00,28.0,24.0,30.32,WSW,249,5.0,8.0,86,0.00,,,0.00,,2013-03-09 01:42:00,
2013-03-08 20:52:00,27.0,24.0,30.32,WSW,244,2.0,8.0,87,0.00,,,0.00,,2013-03-09 01:52:00,
2013-03-08 21:01:00,27.0,24.0,30.32,WSW,251,2.0,7.0,87,0.00,,,0.00,,2013-03-09 02:01:00,
2013-03-08 21:11:00,27.0,24.0,30.32,WSW,251,2.0,7.0,87,0.00,,,0.00,,2013-03-09 02:11:00,
2013-03-08 21:21:00,27.0,24.0,30.32,WSW,242,2.0,7.0,87,0.00,,,0.00,,2013-03-09 02:21:00,
2013-03-08 21:31:00,27.0,24.0,30.32,WSW,241,1.0,5.0,88,0.00,,,0.00,,2013-03-09 02:31:00,
2013-03-08 21:41:00,26.0,23.0,30.32,WSW,239,2.0,7.0,88,0.00,,,0.00,,2013-03-09 02:41:00,
2013-03-08 21:51:00,26.0,23.0,30.32,WSW,239,2.0,7.0,88,0.00,,,0.00,,2013-03-09 02:51:00,
2013-03-08 22:01:00,26.0,23.0,30.32,WSW,239,2.0,7.0,88,0.00,,,0.00,,2013-03-09 03:01:00,
2013-03-08 22:11:00,26.0,23.0,30.32,WSW,239,2.0,7.0,88,0.00,,,0.00,,2013-03-09 03:11:00,
2013-03-08 22:21:00,25.0,22.0,30.32,SW,233,1.0,3.0,90,0.00,,,0.00,,2013-03-09 03:21:00,
2013-03-08 22:32:00,25.0,23.0,30.32,North,0,0.0,2.0,91,0.00,,,0.00,,2013-03-09 03:32:00,
2013-03-08 22:41:00,25.0,23.0,30.32,North,0,0.0,2.0,91,0.00,,,0.00,,2013-03-09 03:41:00,
2013-03-08 22:52:00,24.0,22.0,30.31,North,0,0.0,0.0,92,0.00,,,0.00,,2013-03-09 03:52:00,
2013-03-08 23:01:00,23.0,21.0,30.31,North,0,0.0,2.0,92,0.00,,,0.00,,2013-03-09 04:01:00,
2013-03-08 23:11:00,23.0,21.0,30.31,North,0,0.0,2.0,92,0.00,,,0.00,,2013-03-09 04:11:00,
2013-03-08 23:22:00,23.0,21.0,30.31,North,0,0.0,1.0,93,0.00,,,0.00,,2013-03-09 04:22:00,
2013-03-08 23:32:00,24.0,23.0,30.32,SW,231,2.0,3.0,94,0.00,,,0.00,,2013-03-09 04:32:00,
2013-03-08 23:42:00,24.0,23.0,30.32,SW,231,2.0,3.0,94,0.00,,,0.00,,2013-03-09 04:42:00,
2013-03-08 23:52:00,24.0,23.0,30.32,SW,231,2.0,3.0,94,0.00,,,0.00,,2013-03-09 04:52:00,